Location: Clover
(42.5131°N, 114.6874°W)
Time: 22:14:38
(UTC+00:00)

ACS3 Solar Sail - Visible Passes

Search period start: 13 October 2024 00:00
Search period end: 23 October 2024 00:00
Orbit: 960 x 1033 km, 97.5° (Epoch: 13 October)

Date Brightness Start Highest point End Pass type
(mag) Time Alt. Az. Time Alt. Az. Time Alt. Az.
13 Oct 3.6 01:32:29 10° ENE 01:34:42 12° NE 01:36:54 10° NE visible
13 Oct 1.8 03:16:16 57° SE 03:17:25 68° ENE 03:23:42 10° N visible
13 Oct 3.9 05:01:23 20° W 05:01:46 20° W 05:06:18 10° NW visible
14 Oct 3.1 02:02:44 17° E 02:05:15 21° ENE 02:09:44 10° NNE visible
14 Oct 2.0 03:47:51 66° SW 03:48:29 71° WSW 03:54:50 10° NNW visible
14 Oct 4.5 05:32:58 10° W 05:33:23 10° W 05:33:48 10° W visible
15 Oct 2.5 02:34:18 30° E 02:35:58 35° ENE 02:41:34 10° N visible
15 Oct 2.9 04:19:26 40° WSW 04:19:43 41° W 04:25:39 10° NNW visible
16 Oct 3.7 01:23:46 10° ENE 01:24:15 10° NE 01:24:45 10° NE visible
16 Oct 1.8 03:05:53 53° ESE 03:06:51 59° ENE 03:13:02 10° N visible
16 Oct 3.7 04:51:00 23° W 04:51:05 23° W 04:55:59 10° NW visible
17 Oct 3.2 01:52:20 15° E 01:54:45 18° ENE 01:58:47 10° NNE visible
17 Oct 1.8 03:37:26 77° SSW 03:37:52 82° WSW 03:44:12 10° NNW visible
17 Oct 4.4 05:22:33 12° W 05:22:37 12° W 05:25:01 10° WNW visible
18 Oct 2.6 02:23:53 27° E 02:25:24 30° ENE 02:30:45 10° N visible
18 Oct 2.6 04:09:00 47° W 04:09:01 47° W 04:15:05 10° NNW visible
19 Oct 2.0 02:55:26 49° E 02:56:13 51° ENE 03:02:16 10° N visible
19 Oct 3.6 04:40:33 27° W 04:40:33 27° W 04:45:32 10° NW visible
20 Oct 3.3 01:41:52 13° E 01:44:12 16° ENE 01:47:41 10° NNE visible
20 Oct 1.7 03:26:59 84° SE 03:27:11 88° ENE 03:33:29 10° NNW visible
20 Oct 4.3 05:12:05 14° W 05:12:05 14° W 05:15:06 10° NW visible
21 Oct 2.7 02:13:25 24° E 02:14:47 26° ENE 02:19:50 10° N visible
21 Oct 2.4 03:58:31 54° W 03:58:31 54° W 04:04:26 10° NNW visible
22 Oct 2.1 02:44:56 43° E 02:45:33 45° ENE 02:51:26 10° N visible
22 Oct 3.4 04:30:02 30° W 04:30:02 30° W 04:35:00 10° NNW visible
